Location: Conflandey
(47.7287°N, 6.0456°E)
Time: 03:53:21
(UTC+00:00)

Meteor 1-4 Rocket - Pass Details

Date: 24 October 2021
Orbit: 447 x 496 km, 81.2° (Epoch: 05 December)

Event Time Altitude Azimuth Distance (km) Brightness Sun altitude
Rises 16:56:50 0° 143° (SE) 2,465 5.9 -5.0°
Reaches altitude 10° 16:59:59 10° 111° (ESE) 1,590 4.7 -5.5°
Maximum altitude 17:01:22 12° 87° (E) 1,468 4.3 -5.8°
Drops below altitude 10° 17:02:45 10° 63° (ENE) 1,589 4.6 -6.0°
Sets 17:05:53 0° 32° (NNE) 2,463 5.7 -6.5°
